Regional Weather Roundup
Issued by NWS Wakefield, VA

Home | Current Version | Previous Version | Text Only | Print | Product List | Glossary On
Versions: 1 2 3 4 5 6 7 8 9 10 11 12 13 14 15 16 17 18 19 20 21 22 23 24 25 26 27
000
ASUS41 KAKQ 240315
RWRAKQ

REGIONAL WEATHER ROUNDUP
NATIONAL WEATHER SERVICE WAKEFIELD VA
1100 PM EDT SAT JUL 23 2016

Note: "fair" indicates few or no clouds below 12,000 feet with no
significant weather and/or obstructions to visibility. * = Denotes
station may not report precipitation (e.g., rain,snow,etc.),
thunder or fog.

VAZ042-051-052>054-056-240400-
NORTHERN VIRGINIA

CITY           SKY/WX    TMP DP  RH WIND       PRES   REMARKS
WASH NATIONAL  FAIR      88  72  58 W3        29.92R
DULLES         FAIR      76  74  93 SE3       29.93R
FORT BELVOIR   FAIR      80  75  83 CALM      29.92R
QUANTICO       FAIR      82  77  84 W5        29.93R
FREDERICKSBRG* FAIR      84  78  81 NW3       29.93R
STAFFORD*      MOCLDY    78  75  91 W3        29.97S
WARRENTON      FAIR      80  72  78 CALM      29.94R
CULPEPER*      FAIR      80  73  78 CALM      29.95S
MANASSAS*      FAIR      79  73  83 CALM      29.93R
LEESBURG*      FAIR      82  75  78 SW3       29.94F
WINCHESTER     FAIR      82  70  65 CALM      29.96S
FRONT ROYAL*   FAIR      79  72  78 CALM      29.96R
LURAY*         FAIR      77  77 100 CALM      29.98S
$$

VAZ048-049-060>072-079>083-240400-
CENTRAL AND SOUTH CENTRAL VIRGINIA

CITY           SKY/WX    TMP DP  RH WIND       PRES   REMARKS
RICHMOND       FAIR      81  75  82 SW8       29.94R
CHESTERFIELD*  FAIR      82  64  54 SW3       29.97R
PETERSBURG*    FAIR     N/A N/A N/A CALM      29.96S
HANOVER        FAIR      82  73  74 SW6       29.95R
TAPPAHANNOCK*  FAIR      83  75  77 S5        29.94S
QUINTON*       FAIR      82  78  88 CALM      29.93S
CHARLOTTSVILLE FAIR      81  73  76 N3        29.96R
GORDONSVILLE*  MOCLDY    78  75  92 CALM      29.95S
ORANGE*          N/A     81  75  83 CALM      29.97S
LOUISA*        FAIR      81  77  89 CALM      29.94S
BUMPASS*       FAIR      77  76  97 CALM      29.94F
FARMVILLE*     FAIR      78  74  87 CALM      29.96R
CREWE*         FAIR      76  76 100 CALM      29.97R
FORT PICKETT*  FAIR      78  77  97 SW5       29.98R
CHASE CITY*    FAIR      78  76  95 CALM      29.98R
CLARKSVILLE*   FAIR      77  77 100 CALM      29.97S
SOUTH HILL*    FAIR      78  75  93 CALM      30.04R
LAWRENCEVILLE* FAIR      80  76  89 CALM      29.97S
EMPORIA*       FAIR      79  75  89 CALM      29.98S
$$

VAZ088>098-240400-
SOUTHEAST VIRGINIA

CITY           SKY/WX    TMP DP  RH WIND       PRES   REMARKS
NORFOLK        FAIR      86  74  67 S8        29.95R
VIRGINIA BEACH FAIR      89  75  63 S8        29.95R HX  99
NORFOLK NAVAL  FAIR      86  74  67 SW8       29.96S
WEST POINT*    FAIR      83  76  79 CALM      29.94F
SALUDA*        FAIR      83  77  83 S3        29.93S
NEWPORT NEWS   FAIR      84  77  79 SW10      29.95R
LANGLEY AFB    FAIR      86  76  71 SE9       29.94S HX  95
FORT EUSTIS    FAIR      85  77  79 S5        29.93S HX  95
WILLIAMSBURG*  FAIR      86  77  74 CALM      29.95F HX  97
HR EXEC AP*    FAIR      82  75  78 S5        29.98S
FRANKLIN*      FAIR      82  76  82 S5        29.96F
US460-WAKEFLD  FAIR      80  75  84 CALM      29.96R
$$

VAZ020-022-025-037-045-240400-
WEST CENTRAL AND SOUTHWEST VIRGINIA

CITY           SKY/WX    TMP DP  RH WIND       PRES   REMARKS
STAUNTON*      FAIR      77  70  79 CALM      30.03S
WAYNESBORO*    FAIR      82  68  63 NW3       30.03R
HOT SPRINGS VA FAIR      73  66  78 NW6       30.19R
LYNCHBURG      FAIR      76  73  91 SW3       30.01R
DANVILLE       FAIR      80  74  81 S5        29.98S
SOUTH BOSTON*  FAIR      78  76  95 CALM      29.97R
MARTINSVILLE   FAIR      73  71  93 CALM      30.04R
ROANOKE        FAIR      80  70  71 CALM      30.03R
BLACKSBURG     FAIR      76  69  78 CALM      30.12R
DUBLIN*        FAIR      75  69  81 CALM      30.10R
MARION*        FAIR      72  69  90 CALM      30.15R
HILLSVILLE*    FAIR      75  68  77 SW6       30.12R
RICHLANDS*     FAIR      76  72  87 CALM      30.13R
WISE*          FAIR      73  59  60 CALM      30.16R
ABINGDON*      FAIR      76  71  84 CALM      30.10R
$$

MDZ021>025-VAZ099-100-240400-
SOUTHERN MARYLAND AND THE DELMARVA PENINSULA

CITY           SKY/WX    TMP DP  RH WIND       PRES   REMARKS
PATUXENT RIVER CLEAR     83  74  74 CALM      29.91R
BAY BRIDGE APT PTCLDY    79  72  78 S7        29.90S
LEONARDTOWN    PTCLDY    82  73  74 SW3       29.94R
DOVER          CLEAR     76  76 100 SE3       29.89S
GEORGETOWN     PTCLDY    82  75  79 SW3       29.91F
EASTON         PTCLDY    76  76 100 CALM      29.95S
CAMBRIDGE      CLEAR     81  75  83 CALM      29.91F
SALISBURY      CLOUDY    81  77  88 SW6       29.91F
OCEAN CITY     CLOUDY    84  77  79 SW8       29.90F
WALLOPS ISLAND FAIR      82  76  81 SW5       29.93R
ACCOMACK*      FAIR      82  75  78 CALM      29.93S
$$

NCZ012>017-030>032-240400-
NORTH CENTRAL AND EASTERN NORTH CAROLINA

CITY           SKY/WX    TMP DP  RH WIND       PRES   REMARKS
ROANOKE RAPIDS FAIR      79  75  89 CALM      29.97S
RALEIGH        PTCLDY    80  73  79 SW6       29.99R
ELIZABETH CITY CLEAR     82  75  79 S9        29.98R
AHOSKIE*       CLEAR     79  76  91 S5        29.98S
EDENTON*       CLEAR     84  73  69 SW10      29.99S
CURRITUCK*     CLEAR     83  76  80 CALM      29.98S
KILL DEVIL HLS CLEAR     82  75  78 SW7       29.98S
MANTEO           N/A     82  77  85 SW12      30.00R
CAPE HATTERAS  CLEAR     82  76  81 SW8       30.01S
TARBORO*       FAIR      82  76  81 S3        29.98S
GOLDSBORO      CLEAR     80  77  91 S3        29.98R
WASHINGTON     CLEAR     80  74  81 S5        29.99S
GREENVILLE     CLEAR     81  75  83 SW7       30.00S
NEW BERN       CLEAR     78  73  84 S3        30.01S
WILMINGTON     CLEAR     79  74  84 SW3       30.00S
$$

VAZ048-240400-
ELSEWHERE

CITY           SKY/WX    TMP DP  RH WIND       PRES   REMARKS
HARRISBURG PA  PTCLDY    77  73  87 CALM      29.91R
BALTIMORE      MOCLDY    75  72  90 NW3       29.91S
ANNAPOLIS      PTCLDY    80  77  90 CALM      29.91S
ANDREWS AFB    FAIR      80  73  79 SE3       29.92S
PHILADELPHIA   PTCLDY    80  70  71 SW6       29.89F
GREENSBORO     CLEAR     82  70  66 S7        30.00S
ROCKY MOUNT    CLEAR     81  76  84 S7        29.99R
$$

VAZ100-240400-
MARINE

STATION/POSITION TIME  TEMP    WIND        PRES    WAVE   SWELL
                       AIR SEA DIR/SP/G            HT/PER HT/PER
                 (UTC) (F)     (DEG/KT/KT) (MB)    (FT/S) (FT/S)
BRANDYWINE LGT   0200   81                   N/A
CAPE MAY NJ      0200   79 76                N/A
LEWES DE         0200   80 76                N/A
OCEAN-CITY-INLET 0200   73                   N/A
WACHAPREAGUE VA  0200   84 87                N/A
THOMAS POINT MD  0300   83 82  240/  6/  6 1014.1S
GOOSES REEF MD   0200   89 84   10/  8/ 10 1013.9R   1
COVE POINT MD    0200   88                   N/A
SOLOMONS ISLAND  0200   87 85                N/A
BISHOPS HEAD MD  0200   88                   N/A
PINEY POINT MD   0200          240/  4/  6   N/A
POTOMAC MD       0200   87 85  220/  6/  8 1011.9R   1
CAMBRIDGE MD     0200   86 86                N/A
LEWISETTA VA     0200   87 87                N/A
RAPPAHANNOCK LGT 0200                      1014.2
STINGRAY PT      0200   87 85  170/  6/  8 1013.9R   0
YORK RVR RNG VA  0200   87                   N/A
YORKTOWN VA      0200   86 84                N/A
JAMESTOWN VA     0200   87 87  210/  6/  8   N/A
DOMINION TERM VA 0200   87                   N/A
KIPTOPEKE VA     0200      84                N/A
CHES BAY BRIDGE  0200   88 81                N/A
CAPE HENRY VA    0200   86                   N/A
WILLOUBY STN VA  0200   87                   N/A
CAPE HENRY BUOY  0212      81                N/A     2/ 8
1ST LANDING BUOY 0200   86 83  210/  6/  6 1013.6R
CAPE CHARLES BUO 0226      72                N/A     1/ 8
OFFSHORE WE BUOY 0221      81                N/A     2/ 9
64NM E OF VA BCH 0250   82 81  220/ 16/ 17 1014.5R   3/ 4   2/ 8
DUCK PIER NC     0200   85 67                N/A
44100 DUCK FRF   0205      81                N/A     2/ 8
44056 DUCK FRF   0211      76                N/A     2/ 8
OREGON INLET NC  0200   84 84                N/A
HATTERAS NC      0200   83 83                N/A
DIAMOND SHLS NC  0250   84 86  210/ 14/ 16 1016.2F   3/ 8   2/ 8
CAPE LOOKOUT NC  0300   83     210/  6/  8 1016.3R
$$




USA.gov is the U.S. government's official web portal to all federal, state and local government web resources and services.